Regional Weather Roundup
Issued by NWS Austin/San Antonio, TX

Home | Current Version | Previous Version | Graphics & Text | Print | Product List | Glossary On
Versions: 1 2 3 4 5 6 7 8 9 10 11 12 13 14 15 16 17 18 19 20 21 22 23 24 25 26 27 28 29 30 31 32 33 34 35 36 37 38 39 40 41 42 43 44 45 46 47 48 49 50
559
ASUS44 KEWX 211010
RWREWX
SOUTH TEXAS REGIONAL WEATHER ROUNDUP
NATIONAL WEATHER SERVICE AUSTIN/SAN ANTONIO TX
500 AM CDT MON OCT 21 2019

NOTE: "FAIR" INDICATED FEW OR NO CLOUDS BELOW 12,000 FEET WITH NO
SIGNIFICANT WEATHER AND/OR OBSTRUCTIONS TO VISIBILITY.

* - THESE STATIONS ARE NOT NWS OR FAA STATIONS...AND ARE NOT SUBJECT
    TO NWS AND FAA QUALITY CONTROL.

TXZ171-172-183>190-211100-
TEXAS HILL COUNTRY AND EDWARDS PLATEAU

CITY           SKY/WX    TMP DP  RH WIND       PRES   REMARKS
JUNCTION       CLEAR     59  57  93 CALM      29.86R
*LLANO         PTCLDY    64  63  94 CALM      29.85R
BURNET         LGT RAIN  64  62  93 N3        29.83R
*HORSESHOE BAY RAIN      64  63  94 NW8       29.81R
*KERRVILLE     MOCLDY    61  58  90 CALM      29.81F
*FREDERICKSBRG DRIZZLE   62  58  84 CALM      29.83S
*ROCKSPRINGS   PTCLDY    63  54  72 N9G16     29.88S
*BOERNE        CLOUDY    61  59  94 CALM      29.81F
*CASTROVILLE   LGT RAIN  66  58  76 NW14      29.79S
HONDO          CLOUDY    66  61  84 NE9       29.78S
*UVALDE        LGT RAIN  67  60  78 N13       29.77F
DEL RIO        CLEAR     73  70  90 NW9       29.76R
LAUGHLIN AFB   CLEAR     73  70  91 NE7       29.76R
SPOFFORD       PTCLDY    75  73  92 NE10      29.70R
*EAGLE PASS    CLEAR     75  72  88 NE5       29.73R
CARRIZO SPRGS  CLOUDY    79  73  83 CALM      29.72R
*FAITH RANCH   CLOUDY    79  75  89 CALM      29.72R
$$

TXZ173-191>194-202-209-217>225-228-211100-
CENTRAL AND SOUTH CENTRAL TEXAS

CITY           SKY/WX    TMP DP  RH WIND       PRES   REMARKS
GEORGETOWN     LGT RAIN  66  63  90 NW10      29.79S
AUSTIN/BERGSTM MOCLDY    68  65  90 CALM      29.73F
AUSTIN/MABRY   MOCLDY    67  63  87 VRB3      29.74F
*AUSTIN/EXEC   MOCLDY    66  63  88 NW5       29.75F
*LAGO VISTA    LGT RAIN  64  63  96 NW10      29.79S
SAN MARCOS     MOCLDY    66  63  90 W5        29.76F
NEW BRAUNFELS  LGT RAIN  67  62  84 W12       29.76F
RANDOLPH AFB   PTCLDY    64  61  88 NW12      29.76F
SEGUIN         LGT RAIN  65  63  94 W10       29.81R
KELLY FIELD    PTCLDY    68  59  73 NW10      29.75F
SAN ANTONIO    CLOUDY    65  61  87 NW9       29.77F
STINSON FIELD  LGT RAIN  66  63  90 VRB3      29.76R
PLEASANTON     MOCLDY    76  74  94 N6        29.75R FOG
*LA GRANGE     TSTM      72  69  88 NW16G28   29.73R
*GIDDINGS      LGT RAIN  69  67  92 NW10G17   29.76R
*GONZALES      LGT RAIN  69  64  83 N15G36    29.76R
$$

TXZ163>164-176>182-195>201-210>213-226-227-235-211100-
SOUTHEAST TEXAS

CITY           SKY/WX    TMP DP  RH WIND       PRES   REMARKS
COLLEGE STN    RAIN      69  66  90 NW13G29   29.74R FOG
*BRYAN         TSTM      69  69 100 NW13G20   29.76R
*CALDWELL      LGT RAIN  67  65  94 NW9G18    29.76R
*CROCKETT      FOG       66  63  88 NW9G24    29.79R THUNDER VSB 3/4
*BRENHAM       CLOUDY    81  77  88 NW10      29.74R
HUNTSVILLE     HVY RAIN  71  66  84 S8        29.71R
CONROE         LGT RAIN  77  74  90 S13G24    29.71R
HOUSTON BUSH   LGT RAIN  80  75  84 S6        29.69S
HOUSTON HOBBY  CLOUDY    81  76  84 S9        29.70R
*HOUSTON SW AP CLOUDY    78  76  94 SW3       29.73R
PEARLAND       CLOUDY    82  76  81 S10       29.72R
HOUSTON HOOKS  LGT RAIN  78  75  90 S7        29.70R
ELLINGTON FLD  MOCLDY    79  75  89 S14       29.69R
SUGAR LAND     MOCLDY    74  70  87 S7        29.70F
*HOUSTON EXEC  CLOUDY    75  73  94 S10       29.73R
*CLEVELAND MUN CLOUDY    77  77 100 CALM      29.71R FOG
*WHARTON       CLOUDY    77  74  90 CALM      29.71F
*COLUMBUS      CLOUDY    76  73  90 S3        29.71F THUNDER
*EAGLE LAKE    MOCLDY    81  79  94 SW6       29.71  HX  91
$$

TXZ214>216-236>238-211100-
THE UPPER TEXAS COAST

CITY           SKY/WX    TMP DP  RH WIND       PRES   REMARKS
*ORANGE        CLOUDY    81  79  95 S9        29.74S HX  90
PORT ARTHUR    CLOUDY    80  77  90 S9        29.71S
GALVESTON      CLOUDY    82  79  90 S16       29.72R HX  92
ANGLETON       MOCLDY    79  76  90 S6        29.70R
*BAY CITY      MOCLDY    79  76  90 CALM      29.70S
PALACIOS       CLOUDY    78  73  84 SE5       29.69S
$$

TXZ229>234-239>247-211100-
TEXAS COASTAL BEND AND RIO GRANDE PLAINS

CITY           SKY/WX    TMP DP  RH WIND       PRES   REMARKS
VICTORIA       CLOUDY    82  77  84 S8        29.70S HX  90
*BEEVILLE      CLOUDY    84  79  85 SW7       29.68S HX  95
ROCKPORT       MOCLDY    83  77  82 S13G21    29.68R HX  92
*PORT ARANSAS  PTCLDY    78  73  86 S21G29    29.71R
*PORT LAVACA   CLOUDY    82  80  91 S6        29.70R HX  94
*INGLESIDE     CLEAR     82  76  82 S14G22    29.68S
CORPUS CHRISTI CLOUDY    77  74  90 S10       29.69R
CORPUS NAS     CLEAR     79  77  94 S15G23    29.68S
*ROBSTOWN      CLEAR     79  73  81 S14       29.69R
ALICE          MOCLDY    80  74  81 S14       29.68S
KINGSVILLE NAS MOCLDY    81  75  82 S16G23    29.68R
COTULLA        CLOUDY    82  76  81 CALM      29.73R
LAREDO         PTCLDY    78  74  87 S8        29.68R
$$

TXZ248>255-211100-
DEEP SOUTH TEXAS

CITY           SKY/WX    TMP DP  RH WIND       PRES   REMARKS
BROWNSVILLE    FAIR      77  73  87 S7        29.71S
PORT ISABEL    CLOUDY    77  73  87 S10       29.71F
HARLINGEN      MOCLDY    75  74  96 S10       29.70S
*HEBBRONVILLE  CLOUDY    79  75  88 CALM      29.70S FOG
MCALLEN        CLEAR     76  73  91 SE7       29.70S
*WESLACO       PTCLDY    74  72  93 S7        29.70
FALFURRIAS     CLEAR     79  73  81 S10       29.69R
EDINBURG       FAIR      73  71  93 SE6       29.69F
*ZAPATA        NOT AVBL
$$

TXZ213>215-236>238-242>244-246-247-251-254-255-211100-
CMAN STATIONS

STATION/POSITION TIME  TEMP    WIND        PRES    WAVE
                       AIR SEA DIR/SP/G            HT/PER
                 (UTC) (F)     (DEG/KT/KT) (MB)    (FT/S)
SABINE PASS      0918   80 78  170/ 12/ 17 1007.4
SEA RIM ST PARK  1000   80     180/ 10/ 13 1006.7
NORTH JETTY/GLS  0918   81 77  190/ 14/ 16 1004.6
EAGLE POINT      0918   81 76  180/ 20/ 23 1005.2
MORGANS POINT    0918   81 77  190/ 11/ 14 1005.7
PORT O`CONNOR    0918   79 81  160/ 12/ 15 1004.5
PORT ARANSAS     1000   77 80  170/ 29/ 33 1004.6
MALAQUITE BEACH  0918   80 81  150/ 17/ 23 1004.6
BAFFIN BAY       0918   78 81  170/ 22/ 26 1004.9
PORT ISABEL      0918   76 81  150/  9/ 11 1006.5
$$




USA.gov is the U.S. government's official web portal to all federal, state and local government web resources and services.